[[{"header":{"parameterUnit":"m.s-1","parameterCategory":1,"la1":30.2991,"la2":30.254,"lo1":-89.0895,"lo2":-89.0444,"dy":0.0017,"dx":0.0017,"nx":28,"ny":28,"refTime":"2024-10-15T09:00:00:Z","depth":0,"parameterNumber":2,"parameterNumberName":"U-component_of_WINDS"},"data":[0,0,0,0,0,0,0,0,0,0,0,0,0,0,0,0,0,0,0,0,0,0,0,0,0,0,0,0,0,0,0,0,0,0,0,0,0,0,0,0,0,0,0,0,0,0,0,0,0,0,0,0,0,0,0,0,0,0,-2.4446,-2.4445,0,-2.4389,-2.4388,-2.4387,-2.428,-2.4278,-2.4276,-2.4274,-2.4218,-2.4218,-2.4219,0,0,0,0,0,0,0,0,0,0,0,0,0,-2.4463,-2.4463,-2.4446,-2.4445,-2.4444,-2.4389,-2.4388,-2.4387,-2.4281,-2.4278,-2.4276,-2.4273,-2.4218,-2.4218,-2.4219,0,0,0,0,0,0,0,0,0,0,0,0,0,-2.4436,-2.4463,-2.4446,-2.4384,-2.4378,-2.4389,-2.4388,-2.4387,-2.4281,-2.4278,-2.4275,-2.4272,-2.4218,-2.4218,-2.4219,-2.4286,0,0,-2.4221,-2.4221,0,0,0,0,0,0,0,0,-2.4438,-2.4435,-2.4394,-2.4389,-2.4382,-2.4338,-2.4373,-2.4353,-2.4282,-2.4318,-2.4274,-2.4271,-2.4261,-2.4258,-2.4254,-2.4283,-2.4281,-2.4221,-2.4222,-2.4222,-2.4222,0,0,0,0,0,0,0,-2.444,-2.4437,-2.4423,-2.4394,-2.4386,-2.436,-2.4353,-2.4369,-2.4308,-2.4315,-2.4307,-2.4301,-2.4257,-2.4254,-2.4252,-2.428,-2.4221,-2.4222,-2.4222,-2.4222,-2.4359,-2.4362,0,0,0,0,0,0,-2.445,-2.4439,-2.4425,-2.4421,-2.4402,-2.4362,-2.4354,-2.4356,-2.4307,-2.4297,-2.4304,-2.4297,-2.4254,-2.4251,-2.4249,-2.4323,-2.4222,-2.4222,-2.4223,-2.4356,-2.436,-2.4363,0,0,0,0,0,0,-2.4451,-2.445,-2.4427,-2.4428,-2.4423,-2.4365,-2.4368,-2.4356,-2.4353,-2.4299,-2.4288,-2.4312,-2.4251,-2.4249,-2.4277,-2.432,-2.4223,-2.4223,-2.4352,-2.4357,-2.4361,-2.4472,0,0,0,0,0,0,-2.4452,-2.4451,-2.4475,-2.443,-2.4424,-2.4456,-2.437,-2.4357,-2.4354,-2.4343,-2.4304,-2.4294,-2.4249,-2.4276,-2.4278,-2.4319,-2.4224,-2.4348,-2.4354,-2.436,-2.4464,-2.448,-2.4493,0,0,0,0,0,-2.4453,-2.451,-2.4477,-2.4476,-2.4453,-2.4458,-2.4455,-2.4401,-2.4358,-2.4382,-2.4347,-2.4295,-2.4315,-2.428,-2.4281,-2.4323,-2.4345,-2.4352,-2.4359,-2.4457,-2.4477,-2.4493,0,0,0,0,0,0,-2.4563,-2.4502,-2.4466,-2.4509,-2.449,-2.444,-2.4469,-2.4423,-2.4416,-2.4407,-2.4341,-2.4333,-2.437,-2.4349,-2.4312,-2.4384,-2.4321,-2.4329,-2.4396,-2.4414,-2.4428,-2.4432,-2.4224,0,0,0,0,0,-2.4592,-2.4601,-2.4548,-2.4591,-2.4583,-2.4528,-2.4529,-2.4489,-2.4466,-2.4457,-2.4425,-2.4405,-2.4406,-2.4409,-2.4408,-2.446,-2.445,-2.4489,-2.4504,-2.4516,-2.4524,-2.4549,-2.4565,-2.4387,-2.4387,-2.4387,0,0,-2.4653,-2.4621,-2.4631,-2.4613,-2.4593,-2.4603,-2.4522,-2.4537,-2.4544,-2.446,-2.4484,-2.446,-2.4433,-2.4474,-2.449,-2.4458,-2.457,-2.4526,-2.4536,-2.4536,-2.4558,-2.4575,-2.459,-2.4392,-2.4391,-2.439,0,0,-2.4768,-2.4746,-2.4778,-2.476,-2.473,-2.4693,-2.4701,-2.4659,-2.4639,-2.4662,-2.4598,-2.4606,-2.461,-2.4594,-2.4586,-2.4694,-2.4646,-2.4696,-2.4772,-2.4797,-2.4811,-2.4823,-2.4861,-2.4876,-2.4703,-2.4704,-2.4704,0,-2.4848,-2.4861,-2.4802,-2.482,-2.4814,-2.4737,-2.4769,-2.4754,-2.4727,-2.4724,-2.4688,-2.469,-2.4667,-2.4702,-2.4729,-2.4725,-2.4732,-2.47,-2.4814,-2.4826,-2.4836,-2.4871,-2.4886,-2.471,-2.4709,-2.4709,-2.4708,0,-2.4959,-2.497,-2.5,-2.4973,-2.497,-2.4997,-2.4941,-2.4945,-2.4905,-2.4872,-2.4896,-2.4866,-2.4856,-2.4862,-2.4824,-2.4891,-2.4871,-2.4826,-2.4762,-2.486,-2.4892,-2.4905,-2.4719,-2.4717,-2.4715,-2.4713,0,0,-2.5143,-2.5083,-2.5095,-2.5081,-2.5043,-2.5049,-2.5072,-2.5061,-2.5066,-2.5049,-2.5066,-2.507,-2.5027,-2.5019,-2.4978,-2.5,-2.5086,-2.4951,-2.4949,-2.4977,-2.5158,-2.5192,-2.5209,-2.5054,-2.5056,-2.5058,-2.516,0,-2.525,-2.5284,-2.523,-2.5276,-2.5284,-2.5211,-2.523,-2.5208,-2.5178,-2.518,-2.5147,-2.5151,-2.5094,-2.5088,-2.5107,-2.5072,-2.5122,-2.5064,-2.5068,-2.5069,-2.5077,-2.5225,-2.5262,-2.5359,-2.5172,-2.5174,-2.5175,0,-2.5379,-2.5367,-2.5414,-2.5371,-2.5373,-2.5391,-2.5376,-2.538,-2.5354,-2.533,-2.532,-2.5271,-2.5289,-2.5228,-2.5252,-2.5214,-2.5212,-2.5195,-2.5198,-2.5196,-2.5128,-2.5227,-2.5389,-2.5403,-2.5195,-2.5193,-2.5192,0,-2.5507,-2.5503,-2.553,-2.5521,-2.5472,-2.5487,-2.5467,-2.5437,-2.5434,-2.5422,-2.5419,-2.541,-2.5404,-2.5398,-2.5348,-2.5308,-2.5378,-2.5312,-2.5358,-2.5359,-2.5376,-2.5375,-2.5539,-2.5376,-2.5376,-2.5376,-2.5376,0,-2.5632,-2.5663,-2.5587,-2.5604,-2.5636,-2.5575,-2.5609,-2.5582,-2.5556,-2.5566,-2.5502,-2.5513,-2.5446,-2.545,-2.541,-2.5436,-2.5434,-2.5415,-2.5404,-2.542,-2.5423,-2.5418,-2.541,-2.538,-2.5379,-2.5378,-2.5377,0,-2.578,-2.5731,-2.5755,-2.5706,-2.5695,-2.5721,-2.5679,-2.5692,-2.5657,-2.5671,-2.567,-2.5616,-2.5616,-2.5565,-2.5556,-2.5529,-2.5571,-2.5549,-2.558,-2.5573,-2.5621,-2.5617,-2.5787,-2.5806,-2.5632,-2.5634,-2.5636,0,-2.5863,-2.5885,-2.5838,-2.584,-2.5823,-2.5827,-2.5823,-2.5763,-2.5761,-2.5732,-2.5749,-2.5744,-2.5737,-2.5742,-2.5701,-2.5693,-2.5669,-2.573,-2.5668,-2.5683,-2.5669,-2.5668,-2.5669,-2.5743,-2.5745,-2.5747,-2.5748,0,-2.6014,-2.5988,-2.5984,-2.5972,-2.5969,-2.5957,-2.594,-2.5945,-2.588,-2.5881,-2.5881,-2.5875,-2.5865,-2.5861,-2.5845,-2.5824,-2.5776,-2.5768,-2.5778,-2.5794,-2.5811,-2.5801,-2.5615,-2.5764,-2.5762,-2.5761,-2.576,-2.576,-2.6131,-2.6147,-2.6116,-2.6114,-2.6095,-2.6081,-2.609,-2.6056,-2.6054,-2.6041,-2.6005,-2.6011,-2.5982,-2.5956,-2.594,-2.5943,-2.5913,-2.5928,-2.5931,-2.5936,-2.5944,-2.5811,-2.594,-2.5939,-2.5939,-2.5939,-2.5938,0,-2.6278,-2.6254,-2.6253,-2.6231,-2.623,-2.6183,-2.6162,-2.6164,-2.6169,-2.6146,-2.614,-2.6139,-2.6134,-2.6093,-2.6084,-2.6094,-2.6071,-2.6093,-2.6091,-2.6087,-2.5972,-2.5964,-2.6112,-2.6112,-2.6112,-2.6112,-2.6112,-2.6111,-2.6354,-2.6378,-2.6348,-2.6362,-2.6337,-2.6341,-2.6333,-2.632,-2.6301,-2.6303,-2.6298,-2.6271,-2.6241,-2.6228,-2.6222,-2.621,-2.6209,-2.6239,-2.6219,-2.6112,-2.6096,-2.608,-2.6071,-2.6239,-2.6239,-2.6333,-2.6334,-2.6335]},{"header":{"parameterUnit":"m.s-1","parameterCategory":1,"la1":30.2991,"la2":30.254,"lo1":-89.0895,"lo2":-89.0444,"dy":0.0017,"dx":0.0017,"nx":28,"ny":28,"refTime":"2024-10-15T09:00:00:Z","depth":0,"parameterNumber":3,"parameterNumberName":"V-component_of_WINDS"},"data":[0,0,0,0,0,0,0,0,0,0,0,0,0,0,0,0,0,0,0,0,0,0,0,0,0,0,0,0,0,0,0,0,0,0,0,0,0,0,0,0,0,0,0,0,0,0,0,0,0,0,0,0,0,0,0,0,0,0,-1.5794,-1.5794,0,-1.5866,-1.5867,-1.5867,-1.5904,-1.5905,-1.5905,-1.5905,-1.5975,-1.5977,-1.5979,0,0,0,0,0,0,0,0,0,0,0,0,0,-1.5684,-1.5685,-1.5794,-1.5794,-1.5795,-1.5866,-1.5867,-1.5868,-1.5904,-1.5905,-1.5905,-1.5905,-1.5975,-1.5977,-1.5979,0,0,0,0,0,0,0,0,0,0,0,0,0,-1.5741,-1.5686,-1.5793,-1.5822,-1.5826,-1.5865,-1.5867,-1.5868,-1.5904,-1.5905,-1.5905,-1.5905,-1.5974,-1.5977,-1.5979,-1.5995,0,0,-1.5988,-1.5989,0,0,0,0,0,0,0,0,-1.5738,-1.5745,-1.5817,-1.582,-1.5824,-1.5876,-1.5854,-1.591,-1.5904,-1.5874,-1.5905,-1.5905,-1.5942,-1.5947,-1.5961,-1.5998,-1.6001,-1.5988,-1.599,-1.5991,-1.5992,0,0,0,0,0,0,0,-1.5734,-1.5742,-1.5822,-1.5818,-1.5822,-1.583,-1.5839,-1.5865,-1.5907,-1.5877,-1.588,-1.5888,-1.5944,-1.5958,-1.5963,-1.6002,-1.5988,-1.599,-1.5992,-1.5993,-1.6055,-1.6055,0,0,0,0,0,0,-1.5726,-1.5739,-1.582,-1.5824,-1.578,-1.5832,-1.5841,-1.5859,-1.5907,-1.5914,-1.5888,-1.589,-1.5953,-1.5959,-1.5965,-1.5986,-1.5991,-1.5993,-1.5995,-1.6055,-1.6055,-1.6055,0,0,0,0,0,0,-1.5723,-1.5732,-1.5817,-1.5782,-1.5794,-1.5834,-1.5854,-1.5861,-1.5875,-1.5915,-1.5922,-1.5895,-1.5954,-1.5961,-1.5987,-1.5989,-1.5995,-1.5997,-1.6055,-1.6055,-1.6055,-1.6028,0,0,0,0,0,0,-1.572,-1.5731,-1.5739,-1.5782,-1.5795,-1.5839,-1.5854,-1.5862,-1.588,-1.5883,-1.5923,-1.593,-1.5954,-1.5983,-1.599,-1.5993,-1.5999,-1.6055,-1.6055,-1.6055,-1.6029,-1.6027,-1.6025,0,0,0,0,0,-1.5716,-1.5728,-1.5739,-1.5749,-1.5806,-1.5839,-1.5846,-1.5875,-1.588,-1.5887,-1.5912,-1.5929,-1.5987,-1.5985,-1.5993,-1.5997,-1.6055,-1.6055,-1.6055,-1.6029,-1.6027,-1.6025,0,0,0,0,0,0,-1.5683,-1.5734,-1.5747,-1.5774,-1.5802,-1.5845,-1.5855,-1.5871,-1.5898,-1.5899,-1.5932,-1.5941,-1.5963,-1.5983,-1.5979,-1.6014,-1.6023,-1.6024,-1.6001,-1.5999,-1.5997,-1.5992,-1.6002,0,0,0,0,0,-1.5679,-1.5703,-1.5746,-1.5765,-1.5779,-1.5814,-1.583,-1.5849,-1.5879,-1.5891,-1.5918,-1.5945,-1.597,-1.5985,-1.601,-1.6031,-1.604,-1.6038,-1.6036,-1.6034,-1.6035,-1.6047,-1.6046,-1.6054,-1.6054,-1.6054,0,0,-1.5671,-1.5702,-1.5715,-1.576,-1.5784,-1.5806,-1.5824,-1.5847,-1.5864,-1.5894,-1.592,-1.5941,-1.5973,-1.5997,-1.6008,-1.6014,-1.6035,-1.6034,-1.6033,-1.6035,-1.6047,-1.6046,-1.6045,-1.6054,-1.6054,-1.6054,0,0,-1.5668,-1.5694,-1.5713,-1.5736,-1.5772,-1.5796,-1.58,-1.584,-1.5856,-1.5883,-1.5905,-1.5924,-1.5966,-1.5988,-1.6005,-1.6008,-1.6024,-1.6015,-1.6006,-1.6017,-1.6016,-1.6016,-1.6016,-1.6016,-1.6016,-1.6016,-1.6016,0,-1.5653,-1.569,-1.572,-1.5742,-1.5761,-1.5789,-1.5807,-1.5828,-1.587,-1.5881,-1.5887,-1.5939,-1.5963,-1.5991,-1.5992,-1.6005,-1.6009,-1.6011,-1.6014,-1.6014,-1.6014,-1.6015,-1.6015,-1.6015,-1.6015,-1.6015,-1.6015,0,-1.5669,-1.5694,-1.5704,-1.5745,-1.5764,-1.5784,-1.5816,-1.5832,-1.5849,-1.5871,-1.5897,-1.5926,-1.5957,-1.5965,-1.5982,-1.5995,-1.5997,-1.6008,-1.6017,-1.6011,-1.6013,-1.6013,-1.6013,-1.6013,-1.6014,-1.6014,0,0,-1.5649,-1.5705,-1.5708,-1.5726,-1.5768,-1.5786,-1.5807,-1.5838,-1.585,-1.5877,-1.5894,-1.5928,-1.5938,-1.5957,-1.5976,-1.5985,-1.5985,-1.5995,-1.5996,-1.5991,-1.6,-1.5992,-1.5992,-1.5995,-1.5995,-1.5996,-1.5997,0,-1.5651,-1.5691,-1.5718,-1.5746,-1.5768,-1.5795,-1.5812,-1.5838,-1.5859,-1.588,-1.5902,-1.5926,-1.5937,-1.5948,-1.5959,-1.5983,-1.5987,-1.5983,-1.601,-1.6011,-1.6002,-1.5993,-1.5984,-1.5985,-1.5998,-1.5998,-1.5998,0,-1.566,-1.5687,-1.5718,-1.5755,-1.5766,-1.5781,-1.5811,-1.5831,-1.586,-1.5874,-1.5894,-1.5914,-1.5935,-1.5942,-1.597,-1.5967,-1.5979,-1.5993,-1.5993,-1.5997,-1.6004,-1.5996,-1.5985,-1.5985,-1.5999,-1.5999,-1.5999,0,-1.5642,-1.5686,-1.5709,-1.5724,-1.5768,-1.5778,-1.5797,-1.5827,-1.5843,-1.5868,-1.5879,-1.5906,-1.5921,-1.594,-1.5966,-1.5969,-1.5991,-1.6001,-1.6003,-1.6002,-1.6007,-1.6006,-1.5998,-1.6015,-1.6015,-1.6015,-1.6015,0,-1.5642,-1.5659,-1.5702,-1.5716,-1.5736,-1.5766,-1.5784,-1.5805,-1.583,-1.5848,-1.5872,-1.5888,-1.5921,-1.594,-1.596,-1.598,-1.5987,-1.5998,-1.6003,-1.5996,-1.5994,-1.6005,-1.6005,-1.6015,-1.6015,-1.6015,-1.6015,0,-1.5625,-1.5654,-1.5682,-1.5721,-1.5731,-1.5744,-1.5777,-1.5791,-1.5813,-1.5835,-1.5842,-1.5875,-1.5899,-1.5926,-1.5959,-1.5973,-1.5991,-1.5998,-1.5981,-1.5984,-1.5984,-1.5984,-1.5983,-1.5984,-1.6,-1.5999,-1.5999,0,-1.5624,-1.5638,-1.5679,-1.5693,-1.5711,-1.5733,-1.575,-1.5779,-1.5795,-1.5829,-1.5839,-1.5864,-1.5887,-1.5924,-1.595,-1.5975,-1.5983,-1.5981,-1.5987,-1.5979,-1.5982,-1.5981,-1.5982,-1.5979,-1.5979,-1.5978,-1.5978,0,-1.5617,-1.5631,-1.5655,-1.5683,-1.5702,-1.5726,-1.575,-1.576,-1.5793,-1.581,-1.5835,-1.5852,-1.5886,-1.591,-1.5938,-1.5956,-1.5972,-1.5976,-1.5978,-1.597,-1.596,-1.5965,-1.5976,-1.5976,-1.5976,-1.5976,-1.5976,-1.5977,-1.5608,-1.5621,-1.5652,-1.5677,-1.5698,-1.572,-1.5735,-1.5758,-1.578,-1.581,-1.5825,-1.585,-1.5877,-1.5916,-1.5933,-1.5952,-1.5957,-1.596,-1.5961,-1.5961,-1.5958,-1.5957,-1.5957,-1.5957,-1.5957,-1.5957,-1.5957,0,-1.5603,-1.5624,-1.5646,-1.568,-1.5699,-1.5713,-1.574,-1.5755,-1.5776,-1.5801,-1.5822,-1.585,-1.5873,-1.5901,-1.5926,-1.5936,-1.5944,-1.5941,-1.5941,-1.5944,-1.5952,-1.5948,-1.5934,-1.5934,-1.5934,-1.5934,-1.5934,-1.5934,-1.5603,-1.5626,-1.5642,-1.5675,-1.5695,-1.572,-1.5734,-1.5753,-1.5773,-1.5803,-1.5823,-1.5841,-1.5866,-1.5893,-1.5915,-1.5923,-1.593,-1.5926,-1.5935,-1.5942,-1.5944,-1.5946,-1.5942,-1.5927,-1.5927,-1.5926,-1.5926,-1.5926]}]]